Temp
-6 -6 -6 -6 -7 -7 -7 -7 -6 -6 -6 -6 -7 -8 -8 -8 -8 -8 -8 -7 -8 -7 -7 -7 -7 -6 -6 -6 -6 -6 -6 -6 -7 -7 -6 -5 -5 -5 -6 -6 -6 -6 -6 -6
-7 -7 -6 -6 -7 -7 -7 -7 -7 -7 -6 -6 -7 -7 -7 -8 -8 -8 -8 -8 -8 -8 -8 -8 -7 -7 -7 -7 -6 -6 -6 -6 -5 -6 -6 -6 -6 -6 -6 -6 -6 -6 -6 -6
-7 -7 -7 -7 -7 -6 -6 -6 -7 -8 -8 -7 -7 -8 -8 -8 -9 -9 -9 -8 -8 -8 -7 -8 -8 -7 -6 -7 -7 -7 -7 -6 -6 -6 -6 -6 -6 -6 -6 -6 -6 -6 -6 -6
-7 -7 -7 -7 -7 -6 -6 -6 -7 -7 -7 -8 -9 -8 -9 -9 -9 -9 -9 -9 -8 -8 -8 -7 -8 -7 -8 -8 -8 -8 -8 -7 -6 -6 -6 -6 -6 -6 -6 -6 -6 -6 -6 -6
-7 -7 -7 -7 -7 -7 -7 -8 -8 -8 -8 -8 -9 -10 -10 -10 -10 -10 -10 -10 -9 -8 -8 -8 -8 -8 -7 -8 -8 -7 -7 -7 -7 -7 -7 -7 -7 -7 -7 -6 -6 -6 -6 -6
-8 -7 -7 -8 -9 -9 -10 -9 -10 -9 -9 -9 -10 -11 -12 -11 -11 -11 -11 -10 -10 -9 -9 -8 -8 -8 -9 -9 -7 -7 -8 -8 -7 -7 -7 -7 -7 -7 -7 -7 -7 -7 -6 -6
-8 -8 -8 -10 -10 -10 -9 -9 -10 -10 -10 -10 -10 -11 -12 -12 -11 -11 -11 -10 -11 -10 -10 -9 -8 -8 -8 -8 -8 -8 -7 -8 -8 -8 -7 -8 -8 -7 -7 -7 -7 -7 -7 -6
-9 -9 -10 -10 -10 -10 -10 -9 -10 -10 -11 -11 -11 -11 -11 -12 -11 -11 -11 -11 -10 -10 -10 -9 -8 -8 -9 -8 -9 -8 -8 -9 -8 -8 -8 -8 -8 -8 -8 -7 -7 -7 -7 -7
-9 -10 -11 -10 -10 -10 -10 -10 -10 -10 -11 -11 -11 -11 -11 -11 -11 -11 -11 -10 -11 -10 -10 -10 -9 -9 -9 -9 -9 -9 -10 -9 -8 -9 -9 -9 -8 -8 -8 -7 -7 -7 -7 -7
-10 -11 -10 -10 -10 -10 -10 -10 -10 -10 -10 -11 -11 -11 -12 -11 -11 -11 -11 -11 -11 -11 -11 -11 -10 -9 -9 -9 -9 -10 -10 -10 -10 -10 -9 -9 -9 -8 -8 -8 -7 -7 -7 -7
-10 -10 -10 -10 -10 -10 -10 -10 -10 -10 -10 -10 -10 -11 -11 -12 -12 -11 -11 -11 -11 -11 -11 -11 -12 -11 -10 -10 -10 -10 -10 -10 -10 -10 -10 -10 -10 -9 -9 -9 -8 -8 -7 -7
-10 -10 -9 -10 -10 -10 -10 -10 -10 -10 -10 -10 -10 -10 -10 -12 -12 -12 -10 -11 -11 -11 -11 -12 -12 -11 -11 -11 -11 -11 -11 -11 -11 -10 -11 -10 -10 -9 -9 -9 -9 -8 -7 -7
-10 -10 -10 -10 -10 -10 -10 -11 -11 -12 -12 -12 -12 -12 -11 -11 -12 -12 -12 -10 -11 -12 -11 -11 -11 -11 -11 -11 -11 -11 -11 -11 -10 -10 -10 -10 -10 -10 -9 -9 -8 -8 -8 -7
-10 -10 -11 -10 -10 -10 -11 -12 -12 -12 -12 -12 -12 -13 -13 -12 -13 -12 -12 -11 -11 -11 -11 -11 -11 -11 -11 -11 -11 -11 -10 -10 -10 -10 -10 -10 -10 -9 -9 -8 -8 -8 -7 -7
-10 -10 -10 -10 -11 -11 -11 -12 -13 -13 -14 -13 -14 -14 -14 -13 -12 -13 -12 -12 -11 -11 -11 -12 -12 -12 -12 -12 -12 -11 -10 -10 -10 -10 -10 -10 -10 -10 -10 -9 -9 -8 -8 -8
-10 -10 -10 -11 -11 -11 -12 -12 -13 -14 -14 -14 -14 -14 -14 -14 -13 -12 -12 -12 -12 -12 -12 -12 -12 -12 -12 -12 -11 -11 -11 -10 -10 -10 -10 -11 -11 -11 -10 -10 -9 -9 -8 -8
-11 -10 -11 -10 -11 -12 -11 -11 -12 -13 -14 -14 -14 -14 -14 -14 -14 -13 -13 -13 -12 -12 -12 -12 -12 -12 -12 -11 -11 -11 -11 -10 -10 -12 -11 -12 -12 -11 -10 -10 -9 -9 -9 -8
-10 -11 -11 -11 -11 -12 -12 -12 -12 -13 -13 -14 -14 -14 -14 -14 -14 -13 -13 -12 -12 -12 -12 -12 -11 -11 -12 -12 -11 -11 -11 -12 -12 -12 -12 -13 -12 -11 -11 -10 -10 -9 -9 -9
-10 -11 -11 -11 -11 -11 -11 -12 -12 -12 -13 -13 -13 -13 -13 -13 -13 -13 -13 -12 -12 -12 -12 -12 -11 -11 -11 -11 -12 -12 -12 -11 -11 -11 -11 -11 -11 -11 -10 -10 -10 -10 -10 -10
-11 -11 -11 -11 -10 -11 -11 -12 -11 -12 -12 -12 -13 -13 -13 -13 -13 -13 -13 -12 -12 -12 -12 -12 -12 -12 -12 -12 -12 -12 -12 -12 -11 -11 -11 -11 -11 -11 -11 -11 -11 -11 -11 -11
-11 -11 -11 -11 -11 -11 -11 -12 -12 -12 -12 -12 -12 -13 -12 -13 -12 -12 -12 -12 -13 -13 -13 -12 -12 -12 -12 -12 -12 -12 -12 -12 -12 -12 -12 -12 -12 -12 -12 -12 -12 -12 -12 -12
-11 -11 -11 -11 -11 -11 -12 -12 -12 -12 -12 -12 -12 -11 -12 -13 -12 -13 -13 -12 -12 -12 -12 -13 -13 -13 -13 -12 -12 -13 -13 -13 -13 -13 -13 -13 -13 -13 -12 -12 -12 -12 -12 -12
-11 -11 -11 -11 -11 -11 -12 -12 -12 -12 -12 -12 -12 -13 -12 -13 -13 -13 -12 -12 -13 -12 -12 -12 -13 -14 -13 -14 -14 -14 -14 -13 -13 -13 -13 -13 -13 -13 -13 -13 -13 -13 -13 -12
-12 -11 -11 -12 -12 -11 -12 -12 -12 -12 -12 -12 -12 -12 -12 -12 -13 -13 -13 -13 -13 -13 -14 -15 -14 -14 -14 -14 -13 -13 -13 -13 -13 -13 -13 -13 -13 -13 -13 -13 -13 -14 -14 -13
-12 -11 -11 -11 -11 -11 -12 -12 -12 -12 -12 -12 -12 -12 -13 -12 -12 -12 -13 -13 -13 -13 -13 -13 -13 -13 -13 -13 -13 -13 -13 -13 -13 -13 -13 -13 -13 -14 -14 -14 -14 -14 -14 -14
-12 -12 -12 -11 -11 -12 -12 -12 -12 -12 -12 -12 -13 -13 -12 -12 -13 -13 -13 -13 -13 -13 -13 -13 -13 -13 -13 -14 -14 -14 -14 -14 -14 -14 -14 -14 -14 -14 -14 -14 -14 -14 -14 -14
-12 -12 -12 -12 -12 -12 -12 -12 -12 -12 -12 -13 -13 -13 -13 -13 -13 -13 -13 -14 -14 -14 -14 -14 -14 -14 -14 -14 -14 -14 -14 -15 -15 -15 -15 -14 -14 -14 -14 -14 -14 -14 -14 -14
Height
5840 5838 5838 5839 5839 5837 5835 5834 5833 5838 5834 5837 5838 5838 5840 5843 5845 5845 5849 5852 5851 5853 5855 5857 5858 5860 5863 5864 5866 5865 5865 5868 5871 5872 5872 5879 5883 5886 5889 5892 5894 5897 5900 5902
5832 5831 5830 5832 5830 5829 5827 5826 5824 5824 5824 5823 5825 5826 5827 5830 5834 5838 5842 5847 5845 5844 5846 5850 5853 5856 5858 5862 5864 5866 5868 5870 5869 5872 5873 5875 5879 5882 5885 5888 5891 5893 5896 5897
5822 5819 5819 5821 5821 5818 5813 5811 5808 5807 5809 5809 5808 5812 5816 5816 5821 5827 5833 5840 5840 5841 5841 5844 5849 5852 5854 5856 5860 5862 5863 5868 5868 5870 5872 5873 5876 5879 5881 5883 5885 5889 5891 5893
5811 5810 5808 5808 5807 5803 5799 5796 5793 5791 5790 5792 5794 5795 5799 5802 5806 5814 5821 5828 5832 5835 5840 5843 5844 5847 5850 5852 5855 5857 5859 5862 5864 5866 5868 5870 5872 5875 5877 5879 5881 5884 5886 5888
5801 5799 5798 5795 5792 5786 5783 5782 5781 5780 5780 5779 5778 5779 5782 5787 5793 5797 5806 5812 5818 5825 5830 5834 5837 5839 5839 5845 5849 5851 5853 5855 5857 5860 5863 5867 5869 5870 5872 5875 5876 5879 5880 5882
5792 5788 5785 5784 5779 5774 5771 5773 5772 5770 5769 5770 5769 5766 5768 5771 5778 5784 5789 5795 5802 5811 5817 5824 5827 5832 5832 5829 5835 5842 5846 5850 5852 5855 5857 5858 5862 5864 5865 5867 5869 5870 5873 5874
5779 5774 5771 5768 5766 5766 5766 5768 5765 5762 5759 5759 5759 5757 5758 5759 5763 5769 5775 5782 5788 5795 5803 5811 5817 5821 5824 5825 5822 5828 5831 5836 5839 5842 5847 5851 5854 5856 5858 5860 5862 5863 5865 5866
5772 5767 5761 5757 5759 5760 5758 5757 5755 5754 5753 5750 5749 5747 5747 5749 5751 5754 5762 5769 5774 5783 5790 5795 5802 5808 5812 5816 5816 5815 5818 5824 5825 5815 5831 5838 5842 5845 5850 5851 5853 5854 5855 5858
5763 5759 5752 5753 5751 5750 5747 5746 5745 5740 5740 5735 5736 5736 5734 5736 5739 5742 5745 5753 5760 5767 5776 5784 5789 5795 5799 5802 5804 5806 5810 5813 5815 5818 5824 5828 5833 5835 5838 5842 5844 5846 5847 5849
5756 5751 5751 5749 5743 5739 5735 5733 5730 5726 5721 5719 5719 5719 5721 5722 5725 5728 5733 5738 5744 5752 5761 5770 5777 5780 5787 5792 5795 5797 5800 5801 5805 5807 5811 5814 5819 5823 5826 5829 5833 5835 5837 5838
5748 5744 5744 5742 5736 5731 5726 5720 5712 5707 5702 5700 5700 5703 5703 5707 5710 5713 5718 5725 5732 5739 5747 5755 5762 5769 5773 5779 5783 5786 5788 5791 5795 5797 5802 5805 5807 5811 5816 5817 5820 5821 5822 5823
5742 5740 5734 5731 5727 5720 5715 5708 5701 5695 5689 5683 5680 5681 5682 5687 5693 5697 5703 5710 5719 5727 5735 5743 5751 5756 5762 5767 5770 5774 5777 5781 5784 5787 5789 5792 5796 5800 5803 5804 5805 5807 5808 5809
5734 5732 5725 5720 5715 5709 5702 5694 5685 5677 5669 5664 5661 5659 5664 5668 5674 5681 5687 5698 5708 5717 5725 5732 5739 5744 5749 5753 5758 5762 5764 5767 5769 5772 5774 5776 5780 5782 5786 5788 5789 5792 5793 5793
5725 5722 5718 5712 5708 5702 5694 5684 5674 5663 5654 5647 5641 5639 5643 5651 5658 5665 5675 5686 5700 5707 5715 5722 5728 5732 5736 5742 5747 5750 5753 5755 5758 5760 5760 5762 5764 5765 5769 5773 5774 5776 5778 5778
5722 5716 5714 5710 5704 5697 5687 5677 5667 5657 5646 5638 5629 5624 5627 5637 5646 5660 5669 5681 5690 5698 5707 5712 5715 5721 5726 5729 5731 5733 5737 5740 5742 5744 5747 5748 5750 5752 5754 5757 5759 5762 5764 5764
5717 5714 5710 5707 5701 5693 5683 5674 5662 5652 5642 5637 5631 5629 5630 5637 5646 5657 5666 5673 5682 5691 5697 5702 5707 5712 5714 5717 5720 5723 5726 5727 5728 5729 5730 5732 5734 5738 5741 5741 5744 5748 5749 5751
5714 5712 5708 5705 5699 5692 5683 5672 5663 5654 5645 5640 5638 5637 5639 5642 5649 5657 5663 5672 5680 5686 5691 5697 5702 5705 5708 5711 5714 5715 5717 5719 5716 5717 5717 5719 5723 5725 5730 5732 5734 5736 5737 5738
5711 5709 5707 5703 5698 5691 5683 5674 5667 5662 5654 5648 5646 5645 5646 5649 5654 5660 5665 5671 5677 5682 5687 5692 5696 5699 5701 5704 5706 5708 5710 5711 5710 5709 5709 5710 5715 5716 5720 5722 5724 5724 5726 5726
5709 5707 5705 5702 5698 5693 5685 5678 5672 5668 5664 5659 5653 5652 5654 5657 5659 5664 5668 5672 5676 5681 5685 5689 5693 5695 5696 5699 5701 5703 5705 5706 5706 5706 5707 5709 5709 5709 5712 5713 5714 5714 5716 5713
5707 5705 5703 5702 5698 5694 5688 5682 5677 5673 5671 5668 5666 5665 5665 5665 5666 5669 5673 5677 5681 5683 5686 5688 5691 5693 5695 5698 5699 5701 5702 5701 5700 5701 5702 5702 5703 5705 5705 5705 5705 5705 5705 5703
5706 5704 5703 5701 5699 5696 5690 5685 5683 5679 5677 5675 5674 5674 5674 5676 5677 5678 5679 5681 5683 5685 5687 5690 5689 5691 5694 5695 5696 5697 5698 5698 5698 5698 5699 5699 5700 5700 5699 5699 5699 5699 5698 5698
5706 5704 5702 5700 5699 5696 5692 5689 5685 5683 5682 5682 5681 5680 5680 5681 5681 5682 5684 5685 5686 5687 5688 5690 5692 5692 5693 5694 5694 5695 5696 5696 5697 5697 5698 5699 5698 5697 5696 5696 5696 5695 5694 5692
5706 5704 5702 5701 5700 5699 5697 5694 5689 5686 5685 5685 5685 5685 5685 5685 5686 5687 5687 5688 5688 5688 5688 5689 5690 5693 5693 5694 5696 5696 5697 5697 5698 5698 5698 5697 5696 5695 5695 5693 5692 5690 5687 5685
5706 5705 5703 5703 5703 5703 5700 5699 5698 5695 5693 5692 5692 5691 5691 5691 5691 5690 5689 5689 5690 5690 5691 5692 5695 5696 5697 5699 5699 5699 5699 5698 5697 5697 5695 5694 5693 5691 5689 5687 5684 5682 5680 5677
5708 5707 5706 5706 5706 5706 5705 5703 5703 5701 5700 5698 5698 5698 5697 5697 5697 5696 5696 5695 5696 5696 5697 5698 5698 5699 5699 5699 5698 5698 5697 5696 5695 5694 5693 5691 5688 5686 5684 5682 5679 5677 5674 5670
5710 5708 5707 5707 5708 5709 5709 5708 5707 5707 5706 5704 5704 5704 5704 5703 5702 5702 5702 5702 5701 5701 5701 5701 5701 5701 5700 5700 5699 5698 5696 5695 5693 5691 5689 5687 5685 5682 5680 5677 5675 5671 5668 5664
5710 5710 5710 5710 5710 5712 5712 5711 5711 5710 5710 5710 5709 5709 5709 5708 5707 5707 5706 5706 5706 5705 5704 5703 5703 5702 5701 5700 5699 5697 5695 5693 5691 5689 5686 5684 5681 5678 5675 5672 5669 5665 5662 5658
Wind_Speed
21 24 25 23 22 25 29 32 33 30 36 35 39 47 48 45 43 38 29 24 24 20 33 28 21 18 15 13 15 19 22 23 23 26 25 22 20 20 19 17 17 17 18 18
23 26 28 26 29 29 32 34 37 39 41 43 43 43 48 50 48 46 35 26 25 27 33 34 29 21 18 15 17 15 15 21 24 23 22 21 20 20 18 17 18 18 19 20
27 31 32 32 33 37 42 43 45 43 44 48 50 49 49 51 50 44 40 31 27 26 29 34 35 31 23 23 22 20 20 21 21 22 22 23 23 21 20 20 20 18 20 22
34 34 36 38 38 41 45 49 49 37 34 33 43 53 51 50 51 45 40 37 36 37 29 28 41 36 33 31 27 26 23 22 22 21 21 21 21 20 21 21 21 22 22 22
36 38 38 39 42 45 45 38 31 30 28 28 34 35 50 48 50 48 45 46 45 42 39 37 24 23 43 38 34 36 30 30 27 25 22 18 16 17 18 20 21 21 23 24
35 37 40 37 34 37 35 28 27 28 28 28 31 33 37 40 46 48 46 46 45 42 42 38 36 30 31 41 43 41 37 36 32 31 28 27 25 24 22 22 21 23 24 25
38 41 40 30 26 23 25 26 24 26 29 32 32 32 36 38 40 46 52 52 47 45 46 45 44 39 31 36 48 45 39 45 44 37 35 33 32 30 30 29 27 26 24 25
35 36 31 30 24 25 27 27 29 30 32 33 34 35 36 40 41 45 48 55 57 51 47 44 42 41 37 38 38 47 47 39 51 26 42 39 37 34 34 34 32 31 30 30
32 20 27 27 28 28 32 34 35 43 42 45 42 39 39 39 43 47 49 51 56 60 58 52 49 45 44 43 41 40 39 46 48 55 46 41 43 41 41 43 42 39 37 37
20 23 24 25 32 34 40 45 47 48 50 49 43 42 42 43 43 46 50 49 50 52 54 54 52 55 51 49 50 46 47 47 44 45 53 55 45 43 44 44 44 43 43 42
22 26 26 28 31 39 43 43 41 41 40 39 42 47 46 49 47 47 49 52 49 47 45 42 40 46 53 56 54 46 45 47 50 52 52 47 44 42 47 50 48 47 46 47
22 26 32 31 35 34 35 37 40 40 40 42 43 40 43 50 55 54 50 49 50 50 45 44 43 44 45 48 50 53 57 54 51 50 49 48 53 56 56 57 58 56 53 55
26 28 33 29 29 32 34 37 39 41 42 43 44 46 42 44 50 56 59 51 48 46 44 42 42 43 45 47 50 53 55 58 60 62 61 61 58 53 58 64 65 64 66 67
30 27 22 27 27 29 32 33 34 37 31 32 36 38 38 43 49 50 57 54 46 45 45 42 42 44 45 45 46 49 51 54 56 58 61 64 65 65 63 62 67 70 64 56
23 23 22 23 24 26 31 33 33 35 31 26 22 18 23 33 41 40 49 48 46 46 42 38 41 43 42 41 44 47 45 45 47 51 56 57 60 63 58 55 57 57 53 52
19 16 19 21 25 27 28 31 34 34 26 16 13 4 4 15 25 33 30 39 37 32 30 27 25 23 28 36 41 40 41 43 48 49 49 46 49 49 50 48 48 45 49 49
11 14 16 20 24 24 25 29 31 28 25 13 12 11 8 14 21 23 21 21 23 26 24 22 23 26 28 28 32 34 31 32 34 33 34 39 34 39 39 35 33 35 35 37
9 11 13 19 24 24 26 24 26 23 26 15 8 3 12 13 15 13 11 14 16 18 22 26 24 21 22 24 19 20 18 19 21 20 23 23 27 26 27 27 30 33 36 39
10 11 13 17 20 24 22 20 21 22 19 22 16 9 12 14 14 11 9 16 19 19 16 14 13 12 14 14 14 14 13 15 18 19 21 22 21 21 24 24 26 30 27 35
10 9 11 18 16 15 21 18 20 19 19 16 18 19 18 18 18 16 16 15 13 12 14 11 10 11 12 14 14 14 17 17 14 10 11 12 13 16 17 21 22 23 26 29
9 9 12 12 16 16 17 10 13 19 17 19 18 16 17 17 16 18 14 9 5 11 4 8 4 11 12 8 9 14 11 7 7 7 9 10 11 11 10 11 14 16 18 21
3 5 8 11 16 19 18 14 9 9 13 11 16 16 12 12 14 12 9 5 3 1 7 4 2 3 3 4 4 4 4 3 4 5 6 7 7 8 10 12 13 14 16 19
1 5 7 8 10 13 16 24 24 19 17 18 14 14 12 7 4 4 4 4 3 2 12 6 8 6 4 5 3 2 1 1 2 3 3 4 5 6 9 12 15 18 20 21
4 9 12 11 9 10 15 17 16 19 20 21 22 22 21 19 19 16 15 12 13 12 14 17 13 9 7 5 3 2 4 4 3 3 5 6 9 13 16 18 19 18 20 22
8 8 10 9 8 9 13 15 16 17 17 18 17 17 16 15 16 16 16 16 15 13 12 11 11 10 9 8 7 6 5 5 7 9 12 14 16 18 19 19 20 22 25 26
7 8 8 9 10 12 12 12 13 13 13 16 17 16 16 18 18 17 16 15 14 12 10 8 7 7 6 6 6 7 8 10 12 14 16 18 19 20 21 21 22 22 22 21
6 8 8 11 12 10 9 10 13 13 14 15 15 14 15 15 15 14 14 12 12 11 9 9 7 6 6 6 8 10 12 14 16 17 18 18 18 17 17 18 20 23 25 26
Wind_Direction
275 276 276 276 275 276 280 277 277 276 276 266 261 260 262 263 271 273 275 283 277 246 223 223 234 224 234 230 220 198 184 181 187 190 187 198 199 199 197 195 199 203 202 214
280 277 277 278 278 279 274 268 271 270 267 268 261 256 255 258 258 262 262 266 270 252 216 215 224 208 217 219 209 195 196 197 188 187 187 188 199 203 204 206 210 213 215 221
288 287 288 286 287 287 287 286 283 271 264 259 260 259 254 252 250 248 251 248 249 242 231 221 221 208 220 213 210 201 197 203 195 194 195 194 201 206 207 211 218 223 232 235
289 290 290 293 296 290 288 287 284 283 279 271 258 254 252 245 244 239 231 225 237 238 240 230 225 220 214 221 216 218 206 205 206 206 205 206 207 215 220 224 227 232 239 244
289 292 296 300 297 291 286 280 277 279 285 285 285 264 251 248 233 233 223 224 226 235 242 244 236 241 219 221 221 233 220 216 209 212 216 219 217 225 233 237 239 242 244 249
298 300 299 297 284 274 271 272 275 280 282 281 282 276 262 253 239 226 226 223 230 227 239 239 249 248 241 239 212 230 228 236 226 219 220 222 226 229 229 234 240 245 251 258
306 304 302 294 279 269 268 274 272 279 283 284 281 273 262 252 241 232 222 227 221 224 229 237 246 246 236 238 243 220 224 224 230 225 231 238 233 233 238 240 242 248 252 259
299 299 292 286 291 289 282 279 279 283 284 280 275 269 261 254 242 235 230 226 229 224 228 236 237 235 234 234 235 241 224 239 241 238 231 235 240 241 245 247 249 251 252 257
303 290 282 292 294 292 290 287 283 288 283 282 273 262 257 251 248 243 231 229 230 232 231 231 239 237 239 237 238 235 238 233 235 228 234 235 239 242 245 248 251 253 256 260
297 282 287 295 295 299 297 297 294 288 280 275 271 258 250 252 248 243 244 237 230 232 233 231 233 238 238 241 243 242 250 251 256 248 234 231 229 236 241 242 245 252 252 256
294 293 302 302 297 300 300 301 297 294 290 276 264 252 255 245 245 244 239 239 236 235 233 234 233 232 241 244 246 247 244 249 255 261 260 258 257 250 255 255 257 250 255 258
295 305 311 310 308 302 304 303 299 293 285 280 273 261 250 242 236 238 238 235 236 234 231 230 231 232 231 236 242 248 253 253 252 256 257 259 266 268 267 265 260 262 265 264
314 323 314 316 316 319 315 314 313 304 292 284 272 265 252 240 232 233 234 231 230 235 236 237 238 238 239 238 239 241 243 245 253 256 258 260 261 263 262 265 264 265 272 277
329 329 328 325 325 325 320 324 326 321 303 298 285 268 252 243 231 229 232 231 227 229 235 237 241 245 247 251 250 250 249 251 255 259 261 261 258 258 261 264 264 269 273 273
330 332 325 324 338 336 339 343 330 328 331 328 328 278 234 226 226 221 226 233 232 234 241 242 241 245 248 250 249 248 252 258 258 257 257 260 259 259 262 261 263 268 270 269
320 318 318 330 340 350 351 348 344 345 351 343 5 117 170 203 209 209 212 220 229 230 231 243 240 243 249 242 245 249 256 261 263 262 264 261 256 257 258 258 263 266 266 267
308 306 315 338 347 356 3 2 356 359 2 11 53 104 148 151 176 184 191 202 216 228 225 214 225 240 243 242 246 255 265 271 270 257 259 254 245 247 247 250 251 260 266 266
292 306 322 339 344 358 7 12 15 26 26 37 47 109 93 136 145 150 163 189 198 215 203 219 226 226 235 247 251 257 266 270 264 254 248 236 238 244 246 248 254 255 259 264
292 300 332 327 342 5 19 27 29 29 23 40 64 119 154 151 130 149 178 165 168 175 181 201 214 225 234 245 247 241 242 252 249 245 246 249 253 255 258 263 260 265 263 272
299 318 339 347 3 15 16 37 43 50 44 55 72 94 96 113 123 132 130 145 158 160 168 184 199 210 215 255 255 249 242 236 268 258 246 257 262 259 259 260 271 272 270 275
313 328 332 356 24 3 360 41 47 45 70 67 71 87 91 93 97 120 127 161 180 155 232 205 221 208 185 204 227 260 263 258 263 267 267 267 266 265 269 274 278 281 282 284
341 360 360 356 4 26 41 21 360 36 54 46 70 81 77 74 92 79 75 101 117 324 231 181 195 185 209 211 227 245 264 279 295 300 294 288 289 291 290 288 289 292 292 293
35 15 6 40 51 60 33 52 55 60 67 70 69 60 67 88 67 85 41 55 36 359 195 184 132 81 68 53 39 5 350 270 261 270 284 296 304 303 302 302 302 302 301 299
100 73 87 97 78 52 50 58 64 67 68 66 65 67 61 64 64 53 58 56 45 46 68 63 61 68 67 66 63 55 47 36 21 359 345 330 321 316 313 311 311 310 309 310
132 103 95 85 68 72 77 73 65 62 65 67 66 66 67 68 68 62 59 60 63 68 71 71 72 71 67 60 52 43 27 8 349 337 329 323 321 319 317 314 308 306 309 310
135 117 96 88 92 101 91 75 69 64 66 76 74 72 71 68 65 63 62 62 62 63 63 63 63 55 42 30 18 1 345 336 333 331 329 326 324 321 317 314 312 312 313 315
124 107 109 105 110 106 87 76 70 75 78 74 73 72 65 61 64 64 62 62 62 60 55 54 54 47 37 16 6 1 356 349 341 335 331 329 330 333 335 335 333 329 325 320